Watertown, NY

8:34 PM EDT on May 23, 2018 (GMT -0400)
Watertown International

Weather History for KART - June, 2013

Change the Weather History Date:

Wednesday, June 12, 2013

  Actual Average Record
Temperature  
Mean Temperature 62 °F 63 °F  
Max Temperature 72 °F 74 °F 89 °F (2007)
Min Temperature 51 °F 52 °F 35 °F (1980)
Degree Days  
Heating Degree Days 3 4  
Month to date heating degree days 57 62  
Since 1 June heating degree days 57 62  
Since 1 July heating degree days 6782 7538  
Cooling Degree Days 0 2  
Month to date cooling degree days 13 13  
Year to date cooling degree days 47 24  
Since 1 June cooling degree days 13 13  
Growing Degree Days 12 (Base 50)    
Moisture  
Dew Point 54 °F    
Average Humidity 73    
Maximum Humidity 93    
Minimum Humidity 53    
Precipitation  
Precipitation T in 0.10 in 2.14 in (1986)
Month to date precipitation 4.27 1.21  
Year to date precipitation 14.89 14.36  
Sea Level Pressure  
Sea Level Pressure 29.84 in    
Wind  
Wind Speed 6 mph (NW)    
Max Wind Speed 15 mph    
Max Gust Speed 18 mph    
Visibility 10 miles    
Events      
T = Trace of Precipitation, MM = Missing Value Source: NWS Daily Summary

Daily Weather History Graph

Daily Weather History Graph

Search for Another Location

Airport or City:

Astronomy

Jun. 12, 2013 Rise Set
Actual Time 5:20 AM EDT 8:47 PM EDT
Civil Twilight 4:44 AM EDT 9:23 PM EDT
Nautical Twilight 3:57 AM EDT 10:11 PM EDT
Astronomical Twilight 2:57 AM EDT 11:11 PM EDT
Moon 9:03 AM EDT (6/12) 11:14 PM EDT (6/12)
Length of Visible Light 16h 39m
Length of Day
15h 26m
Waxing Crescent, 14% of the Moon is Illuminated
Jun 12
Waxing Crescent
Jun 16
First Quarter
Jun 23
Full
Jun 30
Last Quarter
Jul 8
New

Hourly Weather History & Observations

Time (EDT) Temp. Dew Point Humidity Pressure Visibility Wind Dir Wind Speed Gust Speed Precip Events Conditions
12:04 AM 57.2 °F 55.4 °F 94% 29.78 in 10.0 mi NW 6.9 mph - N/A   Overcast
12:56 AM 57.9 °F 55.0 °F 90% 29.78 in 10.0 mi NW 9.2 mph - N/A   Overcast
1:11 AM 57.2 °F 55.4 °F 94% 29.79 in 9.0 mi NW 9.2 mph - N/A   Overcast
1:51 AM 57.2 °F 55.4 °F 94% 29.79 in 10.0 mi NNW 8.1 mph - 0.00 in   Overcast
1:56 AM 57.0 °F 55.0 °F 93% 29.79 in 10.0 mi NW 8.1 mph - 0.00 in   Overcast
2:19 AM 57.2 °F 55.4 °F 94% 29.79 in 10.0 mi NNW 8.1 mph - N/A   Overcast
2:56 AM 57.0 °F 54.0 °F 89% 29.79 in 10.0 mi NNW 5.8 mph - N/A   Overcast
3:10 AM 57.2 °F 53.6 °F 88% 29.80 in 10.0 mi NNW 6.9 mph - N/A   Overcast
3:56 AM 57.0 °F 54.0 °F 89% 29.81 in 10.0 mi WNW 5.8 mph - N/A   Overcast
4:30 AM 57.2 °F 53.6 °F 88% 29.82 in 10.0 mi NNW 5.8 mph - N/A   Overcast
4:56 AM 57.9 °F 54.0 °F 87% 29.82 in 10.0 mi NNW 8.1 mph - N/A   Overcast
5:56 AM 57.0 °F 54.0 °F 89% 29.84 in 10.0 mi North 4.6 mph - N/A   Overcast
6:15 AM 57.2 °F 53.6 °F 88% 29.85 in 10.0 mi NNW 4.6 mph - N/A   Overcast
6:31 AM 57.2 °F 53.6 °F 88% 29.85 in 10.0 mi North 5.8 mph - N/A   Mostly Cloudy
6:56 AM 57.9 °F 53.1 °F 84% 29.85 in 10.0 mi North 5.8 mph - N/A   Scattered Clouds
7:56 AM 61.0 °F 53.1 °F 75% 29.86 in 10.0 mi NNE 8.1 mph - N/A   Clear
8:56 AM 63.0 °F 53.1 °F 70% 29.88 in 10.0 mi NE 9.2 mph - N/A   Clear
9:56 AM 64.0 °F 52.0 °F 65% 29.88 in 10.0 mi NNE 8.1 mph - N/A   Mostly Cloudy
10:11 AM 66.2 °F 53.6 °F 64% 29.90 in 10.0 mi North 6.9 mph - N/A   Mostly Cloudy
10:56 AM 66.9 °F 52.0 °F 59% 29.89 in 10.0 mi North 9.2 mph - N/A   Overcast
11:56 AM 69.1 °F 52.0 °F 54% 29.90 in 10.0 mi North 4.6 mph - N/A   Mostly Cloudy
12:56 PM 69.1 °F 55.0 °F 61% 29.89 in 10.0 mi WSW 5.8 mph - N/A   Mostly Cloudy
1:56 PM 69.1 °F 55.9 °F 63% 29.88 in 10.0 mi WSW 12.7 mph - N/A   Partly Cloudy
2:56 PM 71.1 °F 54.0 °F 55% 29.85 in 10.0 mi West 8.1 mph - N/A   Clear
3:56 PM 70.0 °F 57.0 °F 63% 29.86 in 10.0 mi WSW 10.4 mph - N/A   Clear
4:56 PM 68.0 °F 57.0 °F 68% 29.85 in 10.0 mi WSW 9.2 mph - N/A   Clear
5:56 PM 66.9 °F 55.0 °F 66% 29.85 in 10.0 mi WSW 9.2 mph - N/A   Clear
6:56 PM 64.9 °F 54.0 °F 68% 29.85 in 10.0 mi WSW 8.1 mph - N/A   Clear
7:56 PM 64.0 °F 53.1 °F 67% 29.84 in 10.0 mi SSW 4.6 mph - N/A   Clear
8:56 PM 60.1 °F 55.0 °F 83% 29.82 in 10.0 mi Calm Calm - N/A   Clear
9:56 PM 57.9 °F 53.1 °F 84% 29.83 in 10.0 mi Calm Calm - N/A   Clear
10:56 PM 53.1 °F 51.1 °F 93% 29.82 in 10.0 mi Calm Calm - N/A   Clear
11:56 PM 53.1 °F 51.1 °F 93% 29.80 in 10.0 mi East 4.6 mph - N/A   Clear